This demonstration page uses our WeatherBlox Daily Observations layout. Learn more.

Left ArrowRight Arrow

31.84235, -102.49876

Hourly Observations for August 23, 2015

Temp ( °F °C ) Dew Point ( °F °C ) Humidity (%) Winds ( mph kmh ) Pressure ( in mb ) Visibility ( mi km ) Precip ( " mm )
12:53 am 00:53 Clear 85 29.4 59 15 42 42 S 13 20 29.82 1010 10 16 0.00 0.00
1:53 am 01:53 Clear 84 28.9 59 15 43 43 S 12 19 29.83 1010 10 16 0.00 0.00
2:53 am 02:53 Clear 83 28.3 59 15 44 44 SSW 10 17 29.82 1010 10 16 0.00 0.00
3:53 am 03:53 Clear 81 27.2 59 15 47 47 SSW 7 11 29.82 1010 10 16 0.00 0.00
4:53 am 04:53 Clear 81 27.2 59 15 47 47 S 12 19 29.82 1010 10 16 0.00 0.00
5:53 am 05:53 Clear 80 26.7 60 15.6 51 51 S 7 11 29.83 1010 10 16 0.00 0.00
6:53 am 06:53 Clear 78 25.6 60 15.6 54 54 S 7 11 29.85 1011 10 16 0.00 0.00
7:53 am 07:53 Mostly Sunny 77 25 62 16.7 60 60 S 6 9 29.88 1012 9 14 0.00 0.00
8:53 am 08:53 Sunny 80 26.7 64 17.8 58 58 S 8 13 29.90 1013 10 16 0.00 0.00
9:53 am 09:53 Sunny 84 28.9 65 18.3 53 53 S 13 20 29.91 1013 10 16 0.00 0.00
10:53 am 10:53 Sunny 87 30.6 64 17.8 46 46 SSE 7 11 29.92 1013 10 16 0.00 0.00
11:53 am 11:53 Sunny 90 32.2 63 17.2 41 41 SW 5 7 29.94 1014 10 16 0.00 0.00
12:53 pm 12:53 Sunny 93 33.9 63 17.2 37 37 VRB 5 7 29.94 1014 10 16 0.00 0.00
1:53 pm 13:53 Partly Cloudy 94 34.4 63 17.2 36 36 VRB 7 11 29.92 1013 10 16 0.00 0.00
2:16 pm 14:16 Partly Cloudy with Thunderstorms 94 34.4 57 13.9 29 29 E 18 30 29.85 1011 10 16 0.00 0.00
2:45 pm 14:45 Mostly Cloudy with Strong Thunderstorms 76 24.4 63 17.2 64 64 SSE 28 44 29.94 1014 2 3 0.06 1.52
2:53 pm 14:53 Mostly Cloudy with Strong Thunderstorms 74 23.3 60 15.6 62 62 S 36 57 29.99 1016 1 1 0.19 4.83
3:06 pm 15:06 Cloudy with Strong Thunderstorms 77 25 62 16.7 60 60 SE 14 22 29.94 1014 1 1 0.26 6.60
3:10 pm 15:10 Cloudy with Strong Thunderstorms 81 27.2 61 16.1 51 51 SSE 5 7 29.91 1013 2 3 0.29 7.37
3:23 pm 15:23 Mostly Cloudy with Thunderstorms 77 25 64 17.8 64 64 WSW 16 26 29.94 1014 3 5 0.34 8.64
3:53 pm 15:53 Partly Cloudy with Thunderstorms 78 25.6 67 19.4 69 69 W 10 17 29.90 1012 10 16 0.36 9.14
4:02 pm 16:02 Partly Cloudy with Light Rain 78 25.6 66 18.9 67 67 W 6 9 29.85 1011 10 16 0.00 0.03
4:29 pm 16:29 Mostly Cloudy with Nearby Thunderstorms 79 26.1 68 20 69 69 NNE 9 15 29.91 1013 10 16 0.00 0.03
4:51 pm 16:51 Mostly Cloudy with Thunderstorms 77 25 64 18 65 65 N 17 28 29.94 1014 5 8 0.01 0.25
4:53 pm 16:53 Mostly Cloudy with Thunderstorms 77 25 64 17.8 64 64 N 20 31 29.96 1015 5 8 0.01 0.25
5:53 pm 17:53 Partly Cloudy with Thunderstorms N/A N/A N/A undefined N/A N/A N/A 0.01 0.25
6:03 pm 18:03 Partly Cloudy with Nearby Thunderstorms N/A N/A N/A undefined N/A N/A N/A 0.00 0.00
6:21 pm 18:21 Partly Cloudy with Thunderstorms N/A N/A N/A undefined N/A N/A N/A 0.00 0.00
6:49 pm 18:49 Partly Cloudy with Nearby Thunderstorms N/A N/A N/A undefined N/A N/A N/A 0.00 0.00
6:53 pm 18:53 Partly Cloudy with Nearby Thunderstorms N/A N/A N/A undefined N/A N/A N/A 0.00 0.00
7:11 pm 19:11 Partly Cloudy with Thunderstorms N/A N/A N/A undefined N/A N/A N/A 0.00 0.00
9:51 pm 21:51 Mostly Clear with Nearby Thunderstorms N/A N/A N/A undefined N/A N/A N/A 0.00 0.00
9:53 pm 21:53 Mostly Clear with Nearby Thunderstorms N/A N/A N/A undefined N/A N/A N/A 0.00 0.00
10:06 pm 22:06 undefined N/A N/A N/A undefined N/A N/A N/A 0.00 0.00
10:53 pm 22:53 undefined N/A N/A N/A undefined N/A N/A N/A 0.00 0.00
11:53 pm 23:53 undefined N/A N/A N/A undefined N/A N/A N/A 0.00 0.00

Powered by AerisWeather